#datetime,building,power
2024-01-20T00:00:00,mfh,42.09
2024-01-20T00:01:00,mfh,42.17
2024-01-20T00:02:00,mfh,43.14
2024-01-20T00:03:00,mfh,43.21
2024-01-20T00:04:00,mfh,43.26
2024-01-20T00:05:00,mfh,36.32
2024-01-20T00:06:00,mfh,30.84
2024-01-20T00:07:00,mfh,30.44
2024-01-20T00:08:00,mfh,26.52
2024-01-20T00:09:00,mfh,26.92
2024-01-20T00:10:00,mfh,26.96
2024-01-20T00:11:00,mfh,26.89
2024-01-20T00:12:00,mfh,26.78
2024-01-20T00:13:00,mfh,26.85
2024-01-20T00:14:00,mfh,27.04
2024-01-20T00:15:00,mfh,27.21
2024-01-20T00:16:00,mfh,27.09
2024-01-20T00:17:00,mfh,26.76
2024-01-20T00:18:00,mfh,26.61
2024-01-20T00:19:00,mfh,26.85
2024-01-20T00:20:00,mfh,27.31
2024-01-20T00:21:00,mfh,28.07
2024-01-20T00:22:00,mfh,28.19
2024-01-20T00:23:00,mfh,27.50
2024-01-20T00:24:00,mfh,27.70
2024-01-20T00:25:00,mfh,27.73
2024-01-20T00:26:00,mfh,27.64
2024-01-20T00:27:00,mfh,28.13
2024-01-20T00:28:00,mfh,26.98
2024-01-20T00:29:00,mfh,27.03
2024-01-20T00:30:00,mfh,27.61
2024-01-20T00:31:00,mfh,27.93
2024-01-20T00:32:00,mfh,27.40
2024-01-20T00:33:00,mfh,27.27
2024-01-20T00:34:00,mfh,27.26
2024-01-20T00:35:00,mfh,27.32
2024-01-20T00:36:00,mfh,27.89
2024-01-20T00:37:00,mfh,27.16
2024-01-20T00:38:00,mfh,26.48
2024-01-20T00:39:00,mfh,26.47
2024-01-20T00:40:00,mfh,27.07
2024-01-20T00:41:00,mfh,27.33
2024-01-20T00:42:00,mfh,27.79
2024-01-20T00:43:00,mfh,27.09
2024-01-20T00:44:00,mfh,27.51
2024-01-20T00:45:00,mfh,27.13
2024-01-20T00:46:00,mfh,27.24
2024-01-20T00:47:00,mfh,26.42
2024-01-20T00:48:00,mfh,27.27
2024-01-20T00:49:00,mfh,26.55
2024-01-20T00:50:00,mfh,27.05
2024-01-20T00:51:00,mfh,27.09
2024-01-20T00:52:00,mfh,26.93
2024-01-20T00:53:00,mfh,27.09
2024-01-20T00:54:00,mfh,27.11
2024-01-20T00:55:00,mfh,27.24
2024-01-20T00:56:00,mfh,26.99
2024-01-20T00:57:00,mfh,27.06
2024-01-20T00:58:00,mfh,26.39
2024-01-20T00:59:00,mfh,26.36
2024-01-20T01:00:00,mfh,26.97
2024-01-20T01:01:00,mfh,27.11
2024-01-20T01:02:00,mfh,27.14
2024-01-20T01:03:00,mfh,27.55
2024-01-20T01:04:00,mfh,27.18
2024-01-20T01:05:00,mfh,28.13
2024-01-20T01:06:00,mfh,27.47
2024-01-20T01:07:00,mfh,27.66
2024-01-20T01:08:00,mfh,27.12
2024-01-20T01:09:00,mfh,26.76
2024-01-20T01:10:00,mfh,26.78
2024-01-20T01:11:00,mfh,29.53
2024-01-20T01:12:00,mfh,29.02
2024-01-20T01:13:00,mfh,28.99
2024-01-20T01:14:00,mfh,29.03
2024-01-20T01:15:00,mfh,29.21
2024-01-20T01:16:00,mfh,28.97
2024-01-20T01:17:00,mfh,27.20
2024-01-20T01:18:00,mfh,27.16
2024-01-20T01:19:00,mfh,26.29
2024-01-20T01:20:00,mfh,26.29
2024-01-20T01:21:00,mfh,26.35
2024-01-20T01:22:00,mfh,26.78
2024-01-20T01:23:00,mfh,26.74
2024-01-20T01:24:00,mfh,27.09
2024-01-20T01:25:00,mfh,26.73
2024-01-20T01:26:00,mfh,26.79
2024-01-20T01:27:00,mfh,26.78
2024-01-20T01:28:00,mfh,26.07
2024-01-20T01:29:00,mfh,26.14
2024-01-20T01:30:00,mfh,26.12
2024-01-20T01:31:00,mfh,26.86
2024-01-20T01:32:00,mfh,27.70
2024-01-20T01:33:00,mfh,27.76
2024-01-20T01:34:00,mfh,27.67
2024-01-20T01:35:00,mfh,27.48
2024-01-20T01:36:00,mfh,28.54
2024-01-20T01:37:00,mfh,27.67
2024-01-20T01:38:00,mfh,26.17
2024-01-20T01:39:00,mfh,26.10
2024-01-20T01:40:00,mfh,26.14
2024-01-20T01:41:00,mfh,26.88
2024-01-20T01:42:00,mfh,26.92
2024-01-20T01:43:00,mfh,26.82
2024-01-20T01:44:00,mfh,26.96
2024-01-20T01:45:00,mfh,27.77
2024-01-20T01:46:00,mfh,27.14
2024-01-20T01:47:00,mfh,27.24
2024-01-20T01:48:00,mfh,27.13
2024-01-20T01:49:00,mfh,26.82
2024-01-20T01:50:00,mfh,26.78
2024-01-20T01:51:00,mfh,27.12
2024-01-20T01:52:00,mfh,28.04
2024-01-20T01:53:00,mfh,27.23
2024-01-20T01:54:00,mfh,27.76
2024-01-20T01:55:00,mfh,27.63
2024-01-20T01:56:00,mfh,27.69
2024-01-20T01:57:00,mfh,27.25
2024-01-20T01:58:00,mfh,27.82
2024-01-20T01:59:00,mfh,26.44
2024-01-20T02:00:00,mfh,27.01
2024-01-20T02:01:00,mfh,26.89
2024-01-20T02:02:00,mfh,27.12
2024-01-20T02:03:00,mfh,27.24
2024-01-20T02:04:00,mfh,27.15
2024-01-20T02:05:00,mfh,27.77
2024-01-20T02:06:00,mfh,27.26
2024-01-20T02:07:00,mfh,27.22
2024-01-20T02:08:00,mfh,27.44
2024-01-20T02:09:00,mfh,26.57
2024-01-20T02:10:00,mfh,26.58
2024-01-20T02:11:00,mfh,26.57
2024-01-20T02:12:00,mfh,26.99
2024-01-20T02:13:00,mfh,26.97
2024-01-20T02:14:00,mfh,26.92
2024-01-20T02:15:00,mfh,27.30
2024-01-20T02:16:00,mfh,27.68
2024-01-20T02:17:00,mfh,27.12
2024-01-20T02:18:00,mfh,26.97
2024-01-20T02:19:00,mfh,27.33
2024-01-20T02:20:00,mfh,26.28
2024-01-20T02:21:00,mfh,26.28
2024-01-20T02:22:00,mfh,26.79
2024-01-20T02:23:00,mfh,27.32
2024-01-20T02:24:00,mfh,27.04
2024-01-20T02:25:00,mfh,27.70
2024-01-20T02:26:00,mfh,27.29
2024-01-20T02:27:00,mfh,27.31
2024-01-20T02:28:00,mfh,27.58
2024-01-20T02:29:00,mfh,27.64
2024-01-20T02:30:00,mfh,26.81
2024-01-20T02:31:00,mfh,26.80
2024-01-20T02:32:00,mfh,27.24
2024-01-20T02:33:00,mfh,27.73
2024-01-20T02:34:00,mfh,27.59
2024-01-20T02:35:00,mfh,27.22
2024-01-20T02:36:00,mfh,27.82
2024-01-20T02:37:00,mfh,27.82
2024-01-20T02:38:00,mfh,27.32
2024-01-20T02:39:00,mfh,27.38
2024-01-20T02:40:00,mfh,27.44
2024-01-20T02:41:00,mfh,26.66
2024-01-20T02:42:00,mfh,26.49
2024-01-20T02:43:00,mfh,26.73
2024-01-20T02:44:00,mfh,27.35
2024-01-20T02:45:00,mfh,27.92
2024-01-20T02:46:00,mfh,27.43
2024-01-20T02:47:00,mfh,27.48
2024-01-20T02:48:00,mfh,27.72
2024-01-20T02:49:00,mfh,27.66
2024-01-20T02:50:00,mfh,27.58
2024-01-20T02:51:00,mfh,26.77
2024-01-20T02:52:00,mfh,27.38
2024-01-20T02:53:00,mfh,27.01
2024-01-20T02:54:00,mfh,27.28
2024-01-20T02:55:00,mfh,27.13
2024-01-20T02:56:00,mfh,27.74
2024-01-20T02:57:00,mfh,27.18
2024-01-20T02:58:00,mfh,27.50
2024-01-20T02:59:00,mfh,27.12
2024-01-20T03:00:00,mfh,28.36
2024-01-20T03:01:00,mfh,27.83
2024-01-20T03:02:00,mfh,27.82
2024-01-20T03:03:00,mfh,28.08
2024-01-20T03:04:00,mfh,27.69
2024-01-20T03:05:00,mfh,27.76
2024-01-20T03:06:00,mfh,28.25
2024-01-20T03:07:00,mfh,28.24
2024-01-20T03:08:00,mfh,27.51
2024-01-20T03:09:00,mfh,27.59
2024-01-20T03:10:00,mfh,28.11
2024-01-20T03:11:00,mfh,27.84
2024-01-20T03:12:00,mfh,27.70
2024-01-20T03:13:00,mfh,27.03
2024-01-20T03:14:00,mfh,28.00
2024-01-20T03:15:00,mfh,27.16
2024-01-20T03:16:00,mfh,27.76
2024-01-20T03:17:00,mfh,27.73
2024-01-20T03:18:00,mfh,27.62
2024-01-20T03:19:00,mfh,27.73
2024-01-20T03:20:00,mfh,27.68
2024-01-20T03:21:00,mfh,27.68
2024-01-20T03:22:00,mfh,27.58
2024-01-20T03:23:00,mfh,27.61
2024-01-20T03:24:00,mfh,27.27
2024-01-20T03:25:00,mfh,26.89
2024-01-20T03:26:00,mfh,27.47
2024-01-20T03:27:00,mfh,27.77
2024-01-20T03:28:00,mfh,27.77
2024-01-20T03:29:00,mfh,27.64
2024-01-20T03:30:00,mfh,27.69
2024-01-20T03:31:00,mfh,27.83
2024-01-20T03:32:00,mfh,27.44
2024-01-20T03:33:00,mfh,27.31
2024-01-20T03:34:00,mfh,26.61
2024-01-20T03:35:00,mfh,26.74
2024-01-20T03:36:00,mfh,26.41
2024-01-20T03:37:00,mfh,26.92
2024-01-20T03:38:00,mfh,26.93
2024-01-20T03:39:00,mfh,27.08
2024-01-20T03:40:00,mfh,27.13
2024-01-20T03:41:00,mfh,27.55
2024-01-20T03:42:00,mfh,26.93
2024-01-20T03:43:00,mfh,27.07
2024-01-20T03:44:00,mfh,26.27
2024-01-20T03:45:00,mfh,26.19
2024-01-20T03:46:00,mfh,26.20
2024-01-20T03:47:00,mfh,27.22
2024-01-20T03:48:00,mfh,26.96
2024-01-20T03:49:00,mfh,27.00
2024-01-20T03:50:00,mfh,27.08
2024-01-20T03:51:00,mfh,27.11
2024-01-20T03:52:00,mfh,26.98
2024-01-20T03:53:00,mfh,27.39
2024-01-20T03:54:00,mfh,26.20
2024-01-20T03:55:00,mfh,26.17
2024-01-20T03:56:00,mfh,26.27
2024-01-20T03:57:00,mfh,28.18
2024-01-20T03:58:00,mfh,27.24
2024-01-20T03:59:00,mfh,27.21
2024-01-20T04:00:00,mfh,27.13
2024-01-20T04:01:00,mfh,27.09
2024-01-20T04:02:00,mfh,27.31
2024-01-20T04:03:00,mfh,27.48
2024-01-20T04:04:00,mfh,27.36
2024-01-20T04:05:00,mfh,27.04
2024-01-20T04:06:00,mfh,26.65
2024-01-20T04:07:00,mfh,26.47
2024-01-20T04:08:00,mfh,27.47
2024-01-20T04:09:00,mfh,26.81
2024-01-20T04:10:00,mfh,26.78
2024-01-20T04:11:00,mfh,31.20
2024-01-20T04:12:00,mfh,31.52
2024-01-20T04:13:00,mfh,31.51
2024-01-20T04:14:00,mfh,30.75
2024-01-20T04:15:00,mfh,31.33
2024-01-20T04:16:00,mfh,30.51
2024-01-20T04:17:00,mfh,30.98
2024-01-20T04:18:00,mfh,30.93
2024-01-20T04:19:00,mfh,30.93
2024-01-20T04:20:00,mfh,31.34
2024-01-20T04:21:00,mfh,32.28
2024-01-20T04:22:00,mfh,31.25
2024-01-20T04:23:00,mfh,31.46
2024-01-20T04:24:00,mfh,32.14
2024-01-20T04:25:00,mfh,30.67
2024-01-20T04:26:00,mfh,31.40
2024-01-20T04:27:00,mfh,31.36
2024-01-20T04:28:00,mfh,31.99
2024-01-20T04:29:00,mfh,28.40
2024-01-20T04:30:00,mfh,27.80
2024-01-20T04:31:00,mfh,27.98
2024-01-20T04:32:00,mfh,28.31
2024-01-20T04:33:00,mfh,27.45
2024-01-20T04:34:00,mfh,27.89
2024-01-20T04:35:00,mfh,27.09
2024-01-20T04:36:00,mfh,27.50
2024-01-20T04:37:00,mfh,26.61
2024-01-20T04:38:00,mfh,27.25
2024-01-20T04:39:00,mfh,27.61
2024-01-20T04:40:00,mfh,27.63
2024-01-20T04:41:00,mfh,28.35
2024-01-20T04:42:00,mfh,27.77
2024-01-20T04:43:00,mfh,28.38
2024-01-20T04:44:00,mfh,27.56
2024-01-20T04:45:00,mfh,27.98
2024-01-20T04:46:00,mfh,28.38
2024-01-20T04:47:00,mfh,27.63
2024-01-20T04:48:00,mfh,27.18
2024-01-20T04:49:00,mfh,27.71
2024-01-20T04:50:00,mfh,28.09
2024-01-20T04:51:00,mfh,28.22
2024-01-20T04:52:00,mfh,28.37
2024-01-20T04:53:00,mfh,27.45
2024-01-20T04:54:00,mfh,27.42
2024-01-20T04:55:00,mfh,27.43
2024-01-20T04:56:00,mfh,26.81
2024-01-20T04:57:00,mfh,26.82
2024-01-20T04:58:00,mfh,27.35
2024-01-20T04:59:00,mfh,27.59
2024-01-20T05:00:00,mfh,27.35
2024-01-20T05:01:00,mfh,45.23
2024-01-20T05:02:00,mfh,49.16
2024-01-20T05:03:00,mfh,49.50
2024-01-20T05:04:00,mfh,49.65
2024-01-20T05:05:00,mfh,49.34
2024-01-20T05:06:00,mfh,49.02
2024-01-20T05:07:00,mfh,47.94
2024-01-20T05:08:00,mfh,48.26
2024-01-20T05:09:00,mfh,49.21
2024-01-20T05:10:00,mfh,49.80
2024-01-20T05:11:00,mfh,49.11
2024-01-20T05:12:00,mfh,49.52
2024-01-20T05:13:00,mfh,49.43
2024-01-20T05:14:00,mfh,49.77
2024-01-20T05:15:00,mfh,49.62
2024-01-20T05:16:00,mfh,49.61
2024-01-20T05:17:00,mfh,48.65
2024-01-20T05:18:00,mfh,48.67
2024-01-20T05:19:00,mfh,48.77
2024-01-20T05:20:00,mfh,49.43
2024-01-20T05:21:00,mfh,49.20
2024-01-20T05:22:00,mfh,49.12
2024-01-20T05:23:00,mfh,49.09
2024-01-20T05:24:00,mfh,49.93
2024-01-20T05:25:00,mfh,49.20
2024-01-20T05:26:00,mfh,49.00
2024-01-20T05:27:00,mfh,48.29
2024-01-20T05:28:00,mfh,48.89
2024-01-20T05:29:00,mfh,48.23
2024-01-20T05:30:00,mfh,48.83
2024-01-20T05:31:00,mfh,48.96
2024-01-20T05:32:00,mfh,48.87
2024-01-20T05:33:00,mfh,49.34
2024-01-20T05:34:00,mfh,49.35
2024-01-20T05:35:00,mfh,48.75
2024-01-20T05:36:00,mfh,48.21
2024-01-20T05:37:00,mfh,48.27
2024-01-20T05:38:00,mfh,48.58
2024-01-20T05:39:00,mfh,49.08
2024-01-20T05:40:00,mfh,49.00
2024-01-20T05:41:00,mfh,49.40
2024-01-20T05:42:00,mfh,49.37
2024-01-20T05:43:00,mfh,49.21
2024-01-20T05:44:00,mfh,49.19
2024-01-20T05:45:00,mfh,49.29
2024-01-20T05:46:00,mfh,49.21
2024-01-20T05:47:00,mfh,48.43
2024-01-20T05:48:00,mfh,48.66
2024-01-20T05:49:00,mfh,48.33
2024-01-20T05:50:00,mfh,49.35
2024-01-20T05:51:00,mfh,49.48
2024-01-20T05:52:00,mfh,49.15
2024-01-20T05:53:00,mfh,49.37
2024-01-20T05:54:00,mfh,49.40
2024-01-20T05:55:00,mfh,50.74
2024-01-20T05:56:00,mfh,49.48
2024-01-20T05:57:00,mfh,50.20
2024-01-20T05:58:00,mfh,49.41
2024-01-20T05:59:00,mfh,50.77
2024-01-20T06:00:00,mfh,50.62
2024-01-20T06:01:00,mfh,49.21
2024-01-20T06:02:00,mfh,49.89
2024-01-20T06:03:00,mfh,49.26
2024-01-20T06:04:00,mfh,49.17
2024-01-20T06:05:00,mfh,49.63
2024-01-20T06:06:00,mfh,49.97
2024-01-20T06:07:00,mfh,48.82
2024-01-20T06:08:00,mfh,48.64
2024-01-20T06:09:00,mfh,48.62
2024-01-20T06:10:00,mfh,48.99
2024-01-20T06:11:00,mfh,48.85
2024-01-20T06:12:00,mfh,49.61
2024-01-20T06:13:00,mfh,48.95
2024-01-20T06:14:00,mfh,48.57
2024-01-20T06:15:00,mfh,49.17
2024-01-20T06:16:00,mfh,47.60
2024-01-20T06:17:00,mfh,47.68
2024-01-20T06:18:00,mfh,47.62
2024-01-20T06:19:00,mfh,48.40
2024-01-20T06:20:00,mfh,48.34
2024-01-20T06:21:00,mfh,49.29
2024-01-20T06:22:00,mfh,48.25
2024-01-20T06:23:00,mfh,48.21
2024-01-20T06:24:00,mfh,48.53
2024-01-20T06:25:00,mfh,48.91
2024-01-20T06:26:00,mfh,47.80
2024-01-20T06:27:00,mfh,48.02
2024-01-20T06:28:00,mfh,47.83
2024-01-20T06:29:00,mfh,48.00
2024-01-20T06:30:00,mfh,48.00
2024-01-20T06:31:00,mfh,48.05
2024-01-20T06:32:00,mfh,48.08
2024-01-20T06:33:00,mfh,49.03
2024-01-20T06:34:00,mfh,48.25
2024-01-20T06:35:00,mfh,48.17
2024-01-20T06:36:00,mfh,48.92
2024-01-20T06:37:00,mfh,47.69
2024-01-20T06:38:00,mfh,47.71
2024-01-20T06:39:00,mfh,48.32
2024-01-20T06:40:00,mfh,47.98
2024-01-20T06:41:00,mfh,48.40
2024-01-20T06:42:00,mfh,48.37
2024-01-20T06:43:00,mfh,48.27
2024-01-20T06:44:00,mfh,48.16
2024-01-20T06:45:00,mfh,48.42
2024-01-20T06:46:00,mfh,48.12
2024-01-20T06:47:00,mfh,47.44
2024-01-20T06:48:00,mfh,47.38
2024-01-20T06:49:00,mfh,48.03
2024-01-20T06:50:00,mfh,48.25
2024-01-20T06:51:00,mfh,48.18
2024-01-20T06:52:00,mfh,47.92
2024-01-20T06:53:00,mfh,48.00
2024-01-20T06:54:00,mfh,48.01
2024-01-20T06:55:00,mfh,47.19
2024-01-20T06:56:00,mfh,47.18
2024-01-20T06:57:00,mfh,47.35
2024-01-20T06:58:00,mfh,49.15
2024-01-20T06:59:00,mfh,47.87
2024-01-20T07:00:00,mfh,48.16
2024-01-20T07:01:00,mfh,48.22
2024-01-20T07:02:00,mfh,48.47
2024-01-20T07:03:00,mfh,48.52
2024-01-20T07:04:00,mfh,48.03
2024-01-20T07:05:00,mfh,48.40
2024-01-20T07:06:00,mfh,47.35
2024-01-20T07:07:00,mfh,47.31
2024-01-20T07:08:00,mfh,47.38
2024-01-20T07:09:00,mfh,48.35
2024-01-20T07:10:00,mfh,48.23
2024-01-20T07:11:00,mfh,48.32
2024-01-20T07:12:00,mfh,48.31
2024-01-20T07:13:00,mfh,48.35
2024-01-20T07:14:00,mfh,48.06
2024-01-20T07:15:00,mfh,47.39
2024-01-20T07:16:00,mfh,47.43
2024-01-20T07:17:00,mfh,47.69
2024-01-20T07:18:00,mfh,48.24
2024-01-20T07:19:00,mfh,48.26
2024-01-20T07:20:00,mfh,48.79
2024-01-20T07:21:00,mfh,48.23
2024-01-20T07:22:00,mfh,48.17
2024-01-20T07:23:00,mfh,48.38
2024-01-20T07:24:00,mfh,48.27
2024-01-20T07:25:00,mfh,47.83
2024-01-20T07:26:00,mfh,48.46
2024-01-20T07:27:00,mfh,48.65
2024-01-20T07:28:00,mfh,48.85
2024-01-20T07:29:00,mfh,48.82
2024-01-20T07:30:00,mfh,48.72
2024-01-20T07:31:00,mfh,48.61
2024-01-20T07:32:00,mfh,49.02
2024-01-20T07:33:00,mfh,47.76
2024-01-20T07:34:00,mfh,48.46
2024-01-20T07:35:00,mfh,49.24
2024-01-20T07:36:00,mfh,48.38
2024-01-20T07:37:00,mfh,49.23
2024-01-20T07:38:00,mfh,49.22
2024-01-20T07:39:00,mfh,53.46
2024-01-20T07:40:00,mfh,51.57
2024-01-20T07:41:00,mfh,52.07
2024-01-20T07:42:00,mfh,52.44
2024-01-20T07:43:00,mfh,51.23
2024-01-20T07:44:00,mfh,50.70
2024-01-20T07:45:00,mfh,51.49
2024-01-20T07:46:00,mfh,51.85
2024-01-20T07:47:00,mfh,50.82
2024-01-20T07:48:00,mfh,51.81
2024-01-20T07:49:00,mfh,51.87
2024-01-20T07:50:00,mfh,51.51
2024-01-20T07:51:00,mfh,53.28
2024-01-20T07:52:00,mfh,51.87
2024-01-20T07:53:00,mfh,52.46
2024-01-20T07:54:00,mfh,51.32
2024-01-20T07:55:00,mfh,51.70
2024-01-20T07:56:00,mfh,51.15
2024-01-20T07:57:00,mfh,51.69
2024-01-20T07:58:00,mfh,51.75
2024-01-20T07:59:00,mfh,51.80
2024-01-20T08:00:00,mfh,52.31
2024-01-20T08:01:00,mfh,51.83
2024-01-20T08:02:00,mfh,51.94
2024-01-20T08:03:00,mfh,52.09
2024-01-20T08:04:00,mfh,59.51
2024-01-20T08:05:00,mfh,59.04
2024-01-20T08:06:00,mfh,59.89
2024-01-20T08:07:00,mfh,59.25
2024-01-20T08:08:00,mfh,59.46
2024-01-20T08:09:00,mfh,59.56
2024-01-20T08:10:00,mfh,59.25
2024-01-20T08:11:00,mfh,59.22
2024-01-20T08:12:00,mfh,59.31
2024-01-20T08:13:00,mfh,58.61
2024-01-20T08:14:00,mfh,59.77
2024-01-20T08:15:00,mfh,54.48
2024-01-20T08:16:00,mfh,59.43
2024-01-20T08:17:00,mfh,59.33
2024-01-20T08:18:00,mfh,59.46
2024-01-20T08:19:00,mfh,63.18
2024-01-20T08:20:00,mfh,63.85
2024-01-20T08:21:00,mfh,64.13
2024-01-20T08:22:00,mfh,63.70
2024-01-20T08:23:00,mfh,63.02
2024-01-20T08:24:00,mfh,63.10
2024-01-20T08:25:00,mfh,63.07
2024-01-20T08:26:00,mfh,62.92
2024-01-20T08:27:00,mfh,64.26
2024-01-20T08:28:00,mfh,64.35
2024-01-20T08:29:00,mfh,64.03
2024-01-20T08:30:00,mfh,64.50
2024-01-20T08:31:00,mfh,70.21
2024-01-20T08:32:00,mfh,69.41
2024-01-20T08:33:00,mfh,68.92
2024-01-20T08:34:00,mfh,68.27
2024-01-20T08:35:00,mfh,68.26
2024-01-20T08:36:00,mfh,68.40
2024-01-20T08:37:00,mfh,64.84
2024-01-20T08:38:00,mfh,61.86
2024-01-20T08:39:00,mfh,62.43
2024-01-20T08:40:00,mfh,62.87
2024-01-20T08:41:00,mfh,62.12
2024-01-20T08:42:00,mfh,61.99
2024-01-20T08:43:00,mfh,62.10
2024-01-20T08:44:00,mfh,62.11
2024-01-20T08:45:00,mfh,61.96
2024-01-20T08:46:00,mfh,62.37
2024-01-20T08:47:00,mfh,66.36
2024-01-20T08:48:00,mfh,66.89
2024-01-20T08:49:00,mfh,66.08
2024-01-20T08:50:00,mfh,62.49
2024-01-20T08:51:00,mfh,62.20
2024-01-20T08:52:00,mfh,62.71
2024-01-20T08:53:00,mfh,63.06
2024-01-20T08:54:00,mfh,63.29
2024-01-20T08:55:00,mfh,63.74
2024-01-20T08:56:00,mfh,59.48
2024-01-20T08:57:00,mfh,59.93
2024-01-20T08:58:00,mfh,59.97
2024-01-20T08:59:00,mfh,60.27
2024-01-20T09:00:00,mfh,60.45
2024-01-20T09:01:00,mfh,60.82
2024-01-20T09:02:00,mfh,60.30
2024-01-20T09:03:00,mfh,60.39
2024-01-20T09:04:00,mfh,61.35
2024-01-20T09:05:00,mfh,60.47
2024-01-20T09:06:00,mfh,60.80
2024-01-20T09:07:00,mfh,60.82
2024-01-20T09:08:00,mfh,71.54
2024-01-20T09:09:00,mfh,71.44
2024-01-20T09:10:00,mfh,76.20
2024-01-20T09:11:00,mfh,76.26
2024-01-20T09:12:00,mfh,75.91
2024-01-20T09:13:00,mfh,75.37
2024-01-20T09:14:00,mfh,74.64
2024-01-20T09:15:00,mfh,75.08
2024-01-20T09:16:00,mfh,75.15
2024-01-20T09:17:00,mfh,74.78
2024-01-20T09:18:00,mfh,79.71
2024-01-20T09:19:00,mfh,79.82
2024-01-20T09:20:00,mfh,79.94
2024-01-20T09:21:00,mfh,80.16
2024-01-20T09:22:00,mfh,80.26
2024-01-20T09:23:00,mfh,80.34
2024-01-20T09:24:00,mfh,80.52
2024-01-20T09:25:00,mfh,80.70
2024-01-20T09:26:00,mfh,77.67
2024-01-20T09:27:00,mfh,74.94
2024-01-20T09:28:00,mfh,74.90
2024-01-20T09:29:00,mfh,75.68
2024-01-20T09:30:00,mfh,75.90
2024-01-20T09:31:00,mfh,75.41
2024-01-20T09:32:00,mfh,76.93
2024-01-20T09:33:00,mfh,76.05
2024-01-20T09:34:00,mfh,78.77
2024-01-20T09:35:00,mfh,78.83
2024-01-20T09:36:00,mfh,78.80
2024-01-20T09:37:00,mfh,79.74
2024-01-20T09:38:00,mfh,80.07
2024-01-20T09:39:00,mfh,80.04
2024-01-20T09:40:00,mfh,79.44
2024-01-20T09:41:00,mfh,79.99
2024-01-20T09:42:00,mfh,79.62
2024-01-20T09:43:00,mfh,79.76
2024-01-20T09:44:00,mfh,80.32
2024-01-20T09:45:00,mfh,80.50
2024-01-20T09:46:00,mfh,80.46
2024-01-20T09:47:00,mfh,80.08
2024-01-20T09:48:00,mfh,81.19
2024-01-20T09:49:00,mfh,79.81
2024-01-20T09:50:00,mfh,79.67
2024-01-20T09:51:00,mfh,79.65
2024-01-20T09:52:00,mfh,79.38
2024-01-20T09:53:00,mfh,80.06
2024-01-20T09:54:00,mfh,79.89
2024-01-20T09:55:00,mfh,80.05
2024-01-20T09:56:00,mfh,80.45
2024-01-20T09:57:00,mfh,76.80
2024-01-20T09:58:00,mfh,77.14
2024-01-20T09:59:00,mfh,76.78
2024-01-20T10:00:00,mfh,76.81
2024-01-20T10:01:00,mfh,76.60
2024-01-20T10:02:00,mfh,76.82
2024-01-20T10:03:00,mfh,76.22
2024-01-20T10:04:00,mfh,76.28
2024-01-20T10:05:00,mfh,76.31
2024-01-20T10:06:00,mfh,76.17
2024-01-20T10:07:00,mfh,75.98
2024-01-20T10:08:00,mfh,76.07
2024-01-20T10:09:00,mfh,76.23
2024-01-20T10:10:00,mfh,75.88
2024-01-20T10:11:00,mfh,75.98
2024-01-20T10:12:00,mfh,76.81
2024-01-20T10:13:00,mfh,75.74
2024-01-20T10:14:00,mfh,75.40
2024-01-20T10:15:00,mfh,75.23
2024-01-20T10:16:00,mfh,76.11
2024-01-20T10:17:00,mfh,76.17
2024-01-20T10:18:00,mfh,75.84
2024-01-20T10:19:00,mfh,76.39
2024-01-20T10:20:00,mfh,79.78
2024-01-20T10:21:00,mfh,79.19
2024-01-20T10:22:00,mfh,79.40
2024-01-20T10:23:00,mfh,81.45
2024-01-20T10:24:00,mfh,81.27
2024-01-20T10:25:00,mfh,81.03
2024-01-20T10:26:00,mfh,80.88
2024-01-20T10:27:00,mfh,80.65
2024-01-20T10:28:00,mfh,81.16
2024-01-20T10:29:00,mfh,80.66
2024-01-20T10:30:00,mfh,80.85
2024-01-20T10:31:00,mfh,80.80
2024-01-20T10:32:00,mfh,81.30
2024-01-20T10:33:00,mfh,81.41
2024-01-20T10:34:00,mfh,82.79
2024-01-20T10:35:00,mfh,82.86
2024-01-20T10:36:00,mfh,82.60
2024-01-20T10:37:00,mfh,82.45
2024-01-20T10:38:00,mfh,82.76
2024-01-20T10:39:00,mfh,82.66
2024-01-20T10:40:00,mfh,82.71
2024-01-20T10:41:00,mfh,82.88
2024-01-20T10:42:00,mfh,82.99
2024-01-20T10:43:00,mfh,82.71
2024-01-20T10:44:00,mfh,82.76
2024-01-20T10:45:00,mfh,82.74
2024-01-20T10:46:00,mfh,82.70
2024-01-20T10:47:00,mfh,82.17
2024-01-20T10:48:00,mfh,82.36
2024-01-20T10:49:00,mfh,82.23
2024-01-20T10:50:00,mfh,82.26
2024-01-20T10:51:00,mfh,82.02
2024-01-20T10:52:00,mfh,81.44
2024-01-20T10:53:00,mfh,81.64
2024-01-20T10:54:00,mfh,82.19
2024-01-20T10:55:00,mfh,81.05
2024-01-20T10:56:00,mfh,81.24
2024-01-20T10:57:00,mfh,81.41
2024-01-20T10:58:00,mfh,81.02
2024-01-20T10:59:00,mfh,81.10
2024-01-20T11:00:00,mfh,80.99
2024-01-20T11:01:00,mfh,80.44
2024-01-20T11:02:00,mfh,80.62
2024-01-20T11:03:00,mfh,80.86
2024-01-20T11:04:00,mfh,81.14
2024-01-20T11:05:00,mfh,80.90
2024-01-20T11:06:00,mfh,81.20
2024-01-20T11:07:00,mfh,81.36
2024-01-20T11:08:00,mfh,81.32
2024-01-20T11:09:00,mfh,81.39
2024-01-20T11:10:00,mfh,81.65
2024-01-20T11:11:00,mfh,81.08
2024-01-20T11:12:00,mfh,81.43
2024-01-20T11:13:00,mfh,81.16
2024-01-20T11:14:00,mfh,81.10
2024-01-20T11:15:00,mfh,81.19
2024-01-20T11:16:00,mfh,80.89
2024-01-20T11:17:00,mfh,80.73
2024-01-20T11:18:00,mfh,81.15
2024-01-20T11:19:00,mfh,82.42
2024-01-20T11:20:00,mfh,81.98
2024-01-20T11:21:00,mfh,83.24
2024-01-20T11:22:00,mfh,81.52
2024-01-20T11:23:00,mfh,81.80
2024-01-20T11:24:00,mfh,81.62
2024-01-20T11:25:00,mfh,81.74
2024-01-20T11:26:00,mfh,81.97
2024-01-20T11:27:00,mfh,81.74
2024-01-20T11:28:00,mfh,81.67
2024-01-20T11:29:00,mfh,80.83
2024-01-20T11:30:00,mfh,80.82
2024-01-20T11:31:00,mfh,81.10
2024-01-20T11:32:00,mfh,81.39
2024-01-20T11:33:00,mfh,81.63
2024-01-20T11:34:00,mfh,81.61
2024-01-20T11:35:00,mfh,81.55
2024-01-20T11:36:00,mfh,80.93
2024-01-20T11:37:00,mfh,80.62
2024-01-20T11:38:00,mfh,81.00
2024-01-20T11:39:00,mfh,80.89
2024-01-20T11:40:00,mfh,81.00
2024-01-20T11:41:00,mfh,81.26
2024-01-20T11:42:00,mfh,80.02
2024-01-20T11:43:00,mfh,80.39
2024-01-20T11:44:00,mfh,80.79
2024-01-20T11:45:00,mfh,79.78
2024-01-20T11:46:00,mfh,79.60
2024-01-20T11:47:00,mfh,79.94
2024-01-20T11:48:00,mfh,80.62
2024-01-20T11:49:00,mfh,81.71
2024-01-20T11:50:00,mfh,80.93
2024-01-20T11:51:00,mfh,81.19
2024-01-20T11:52:00,mfh,81.14
2024-01-20T11:53:00,mfh,81.03
2024-01-20T11:54:00,mfh,80.64
2024-01-20T11:55:00,mfh,81.26
2024-01-20T11:56:00,mfh,80.84
2024-01-20T11:57:00,mfh,81.08
2024-01-20T11:58:00,mfh,81.05
2024-01-20T11:59:00,mfh,81.15
2024-01-20T12:00:00,mfh,80.98
2024-01-20T12:01:00,mfh,80.76
2024-01-20T12:02:00,mfh,81.05
2024-01-20T12:03:00,mfh,81.06
2024-01-20T12:04:00,mfh,80.94
2024-01-20T12:05:00,mfh,80.93
2024-01-20T12:06:00,mfh,80.95
2024-01-20T12:07:00,mfh,80.89
2024-01-20T12:08:00,mfh,80.95
2024-01-20T12:09:00,mfh,80.97
2024-01-20T12:10:00,mfh,81.05
2024-01-20T12:11:00,mfh,80.89
2024-01-20T12:12:00,mfh,80.87
2024-01-20T12:13:00,mfh,80.61
2024-01-20T12:14:00,mfh,80.77
2024-01-20T12:15:00,mfh,81.43
2024-01-20T12:16:00,mfh,81.60
2024-01-20T12:17:00,mfh,81.76
2024-01-20T12:18:00,mfh,82.74
2024-01-20T12:19:00,mfh,84.62
2024-01-20T12:20:00,mfh,84.72
2024-01-20T12:21:00,mfh,84.66
2024-01-20T12:22:00,mfh,84.67
2024-01-20T12:23:00,mfh,84.44
2024-01-20T12:24:00,mfh,84.46
2024-01-20T12:25:00,mfh,84.69
2024-01-20T12:26:00,mfh,84.55
2024-01-20T12:27:00,mfh,84.54
2024-01-20T12:28:00,mfh,84.60
2024-01-20T12:29:00,mfh,84.63
2024-01-20T12:30:00,mfh,84.63
2024-01-20T12:31:00,mfh,84.67
2024-01-20T12:32:00,mfh,84.61
2024-01-20T12:33:00,mfh,84.30
2024-01-20T12:34:00,mfh,84.29
2024-01-20T12:35:00,mfh,84.26
2024-01-20T12:36:00,mfh,84.35
2024-01-20T12:37:00,mfh,84.50
2024-01-20T12:38:00,mfh,84.27
2024-01-20T12:39:00,mfh,84.15
2024-01-20T12:40:00,mfh,84.19
2024-01-20T12:41:00,mfh,84.24
2024-01-20T12:42:00,mfh,84.31
2024-01-20T12:43:00,mfh,84.60
2024-01-20T12:44:00,mfh,84.55
2024-01-20T12:45:00,mfh,84.06
2024-01-20T12:46:00,mfh,84.09
2024-01-20T12:47:00,mfh,84.09
2024-01-20T12:48:00,mfh,84.27
2024-01-20T12:49:00,mfh,84.27
2024-01-20T12:50:00,mfh,84.28
2024-01-20T12:51:00,mfh,84.54
2024-01-20T12:52:00,mfh,84.12
2024-01-20T12:53:00,mfh,83.85
2024-01-20T12:54:00,mfh,83.89
2024-01-20T12:55:00,mfh,83.99
2024-01-20T12:56:00,mfh,84.04
2024-01-20T12:57:00,mfh,83.82
2024-01-20T12:58:00,mfh,83.56
2024-01-20T12:59:00,mfh,84.20
2024-01-20T13:00:00,mfh,84.07
2024-01-20T13:01:00,mfh,84.15
2024-01-20T13:02:00,mfh,83.83
2024-01-20T13:03:00,mfh,83.82
2024-01-20T13:04:00,mfh,84.25
2024-01-20T13:05:00,mfh,84.28
2024-01-20T13:06:00,mfh,84.72
2024-01-20T13:07:00,mfh,84.08
2024-01-20T13:08:00,mfh,84.36
2024-01-20T13:09:00,mfh,84.43
2024-01-20T13:10:00,mfh,84.33
2024-01-20T13:11:00,mfh,84.34
2024-01-20T13:12:00,mfh,84.23
2024-01-20T13:13:00,mfh,84.24
2024-01-20T13:14:00,mfh,84.29
2024-01-20T13:15:00,mfh,84.14
2024-01-20T13:16:00,mfh,84.09
2024-01-20T13:17:00,mfh,84.29
2024-01-20T13:18:00,mfh,84.46